^^
Garrymore Weather Station Historical Data
 
Daily Summary for October 21, 2019 Units:  Metric    English   Both
Daily Weekly Monthly Yearly Custom
  Current: High: Low: Average:
Temperature: 3 °C 3 °C 2 °C 2.1 °C
Dew Point: 1 °C 1 °C -2 °C -0.8 °C
Humidity: 89% 89% 79% 83%
Wind Speed: 2km/h 5km/h 0km/h 2.2km/h
Wind Gust: 6km/h 10km/h - -
WindNNW - - WNW
Pressure: 1027.29 hPa 1027.87 hPa 1026.72 hPa -
Precipitation: 0 mm      
Historical Graphs
 
 
Tabular Data for October 21, 2019
Time Temperature Dew Point Pressure Wind Wind Speed Wind Gust Humidity Rainfall Rate (Hourly) solar
00:00 2 °C -2 °C 1026.79 hPa Calm   5 km/h 79% 0 mm 0 W/m2
00:05 2 °C -2 °C 1026.72 hPa NW 2 km/h 3 km/h 79% 0 mm 0 W/m2
00:10 2 °C -2 °C 1026.89 hPa WNW 2 km/h 3 km/h 79% 0 mm 0 W/m2
00:15 2 °C -2 °C 1026.82 hPa W 2 km/h 5 km/h 79% 0 mm 0 W/m2
00:20 2 °C -2 °C 1026.92 hPa W 2 km/h 5 km/h 79% 0 mm 0 W/m2
00:25 2 °C -2 °C 1026.99 hPa WSW 2 km/h 5 km/h 79% 0 mm 0 W/m2
00:30 2 °C -1 °C 1026.92 hPa WSW 2 km/h 5 km/h 80% 0 mm 0 W/m2
00:35 2 °C -1 °C 1026.89 hPa W 2 km/h 5 km/h 80% 0 mm 0 W/m2
00:40 2 °C -1 °C 1026.92 hPa W 2 km/h 5 km/h 80% 0 mm 0 W/m2
00:45 2 °C -1 °C 1026.82 hPa W 2 km/h 5 km/h 80% 0 mm 0 W/m2
00:50 2 °C -1 °C 1026.92 hPa W 2 km/h 3 km/h 80% 0 mm 0 W/m2
00:55 2 °C -1 °C 1027.19 hPa WNW 2 km/h 5 km/h 80% 0 mm 0 W/m2
01:00 2 °C -1 °C 1027.19 hPa WNW 2 km/h 3 km/h 81% 0 mm 0 W/m2
01:05 2 °C -1 °C 1027.09 hPa WSW 2 km/h 3 km/h 81% 0 mm 0 W/m2
01:10 2 °C -1 °C 1027.09 hPa W 2 km/h 6 km/h 81% 0 mm 0 W/m2
01:15 2 °C -1 °C 1027.46 hPa WNW 3 km/h 6 km/h 81% 0 mm 0 W/m2
01:20 2 °C 0 °C 1027.5 hPa WNW 2 km/h 5 km/h 85% 0 mm 0 W/m2
01:25 2 °C 0 °C 1027.4 hPa W 2 km/h 5 km/h 86% 0 mm 0 W/m2
01:30 2 °C 0 °C 1027.4 hPa WSW 2 km/h 3 km/h 86% 0 mm 0 W/m2
01:35 2 °C -1 °C 1027.4 hPa WNW 2 km/h 5 km/h 82% 0 mm 0 W/m2
01:40 2 °C -1 °C 1027.23 hPa NW 2 km/h 5 km/h 82% 0 mm 0 W/m2
01:45 2 °C -1 °C 1027.4 hPa WNW 3 km/h 10 km/h 82% 0 mm 0 W/m2
01:50 2 °C -1 °C 1027.33 hPa WNW 2 km/h 10 km/h 82% 0 mm 0 W/m2
01:55 2 °C -1 °C 1027.5 hPa WNW 2 km/h 5 km/h 82% 0 mm 0 W/m2
02:00 2 °C -1 °C 1027.5 hPa WNW 2 km/h 6 km/h 82% 0 mm 0 W/m2
02:05 2 °C -1 °C 1027.4 hPa W 2 km/h 6 km/h 82% 0 mm 0 W/m2
02:10 2 °C -1 °C 1027.5 hPa W 2 km/h 6 km/h 82% 0 mm 0 W/m2
02:15 2 °C -1 °C 1027.6 hPa WNW 2 km/h 6 km/h 82% 0 mm 0 W/m2
02:20 2 °C -1 °C 1027.6 hPa W 3 km/h 8 km/h 82% 0 mm 0 W/m2
02:25 2 °C -1 °C 1027.87 hPa WNW 2 km/h 8 km/h 83% 0 mm 0 W/m2
02:30 2 °C -1 °C 1027.8 hPa NW 2 km/h 5 km/h 83% 0 mm 0 W/m2
02:35 2 °C -1 °C 1027.8 hPa NW 2 km/h 5 km/h 83% 0 mm 0 W/m2
02:40 2 °C -1 °C 1027.8 hPa NW 2 km/h 6 km/h 83% 0 mm 0 W/m2
02:45 2 °C 0 °C 1027.8 hPa NW 2 km/h 5 km/h 87% 0 mm 0 W/m2
02:50 2 °C 0 °C 1027.6 hPa NW 3 km/h 5 km/h 88% 0 mm 0 W/m2
02:55 2 °C 0 °C 1027.7 hPa WNW 5 km/h 8 km/h 88% 0 mm 0 W/m2
03:00 2 °C 1 °C 1027.7 hPa WNW 2 km/h 8 km/h 88% 0 mm 0 W/m2
03:05 2 °C 1 °C 1027.5 hPa WSW 2 km/h 3 km/h 88% 0 mm 0 W/m2
03:10 3 °C 1 °C 1027.5 hPa S 2 km/h 5 km/h 89% 0 mm 0 W/m2
03:15 3 °C 1 °C 1027.5 hPa NW 5 km/h 6 km/h 89% 0 mm 0 W/m2
03:20 3 °C 1 °C 1027.29 hPa NNW 2 km/h 6 km/h 89% 0 mm 0 W/m2
Garrymore Weather Station, Geashill, Tullamore, Offaly, Ireland
Compliments of Weather Underground - 2 mb